Weather in May Pen

Jamaica     17°58′08″N   77°14′41″W
temp.,
°C
wind,
m/s
gust,
m/s
humid.,
%
clouds,
%
prec.,
mm/h
press.,
hPa
HPBL,
m
20 april, tue
tue2001:00+22ese259352 0.1 1015186
04:00+21e129414 0.0 101570
07:00+23ese268418 0.0 1017510
10:00+30se69433 0.0 10171319
13:00+32se79361 0.0 10161400
16:00+29se68445 0.0 10141085
19:00+22sse13865 0.0 101685
22:00+21nnw119212 0.0 101713
21 april, wed
wed2101:00+20nnw119429 0.0 101614
04:00+20nnw22954 0.0 101621
07:00+22n1176100 0.0 1018120
10:00+30se44445 0.0 10181340
13:00+32se65442 0.0 10161800
16:00+29se665314 0.2 10141234
19:00+23ssw118340 0.4 101631
22:00+22nw228727 0.0 101720
22 april, thu
thu2201:00+21nnw228692 0.0 101629
04:00+20nnw22895 0.0 101516
07:00+23n11740 0.0 1017128
10:00+30se33440 0.0 10171588
13:00+33se65393 0.0 10142060
16:00+28se446045 0.4 1014981
19:00+23se11841 0.9 101515
22:00+21nnw22900 0.0 101719
23 april, fri
fri2301:00+20nnw22865 0.0 101630
04:00+20n22860 0.0 101522
07:00+23n12770 0.0 1016131
10:00+31ese22390 0.0 10161550
13:00+33sse543972 0.0 10142029
16:00+28sse326116 1.4 10131056
19:00+23s11825 1.7 101415
22:00+22n228847 0.0 101627
24 april, sat
sat2401:00+20n22905 0.0 101443
04:00+20nnw22926 0.0 101342
07:00+24nne237735 0.0 1015260
10:00+31se46445 0.0 10151533
13:00+31se67433 0.0 10141554
16:00+29se57486 0.0 10131339
19:00+23sse128335 0.0 101538
22:00+22nw119225 0.0 101617